2025-013E (62733 NORAD) Tracking and Keplerian Element Data

This shows tracking and keplerian element data for the satellite.

Feedback or suggestion? Click here.




ElementValue
Catalog62733
Name2025-013E
Epoch Orbit212
Epoch Day35.18369812
Epoch Year2025
RAAN202.1637
Inclination97.611
Eccentricity0.0013116
Argument of Perigee237.4921
Mean Anonmoly122.5041
Mean Motion15.09492947
Decay Rate8.96E-05
L11 62733U 25013E 25035.18369812 .00008960 00000+0 56182-3 0 9992
L22 62733 97.6110 202.1637 0013116 237.4921 122.5041 15.09492947 2128



Live tracking and technical data element details for 2025-013E (NORAD 62733). 2025-013E can be tracked NOW for your location showing map with azimuth and elevation plus other details from your city location.







IsCatalogInMostPopularTable: catalog: 62733, numindb: 3
Update: records affected: 1



GetName: 62733 2025-013E

Hit Count: updated at: Sun, 09 Feb 2025 15:40:11 GMT